Weather History for KIWI - November, 2013

Change the Weather History Date:

Monday, November 25, 2013

  Actual Average Record
Temperature  
Mean Temperature 22 °F -  
Max Temperature 28 °F 41 °F 57 °F (2004)
Min Temperature 17 °F 25 °F 8 °F (2000)
Degree Days  
Heating Degree Days 42    
Moisture  
Dew Point 3 °F    
Average Humidity 46    
Maximum Humidity 69    
Minimum Humidity 28    
Precipitation  
Precipitation 0.00 in - - ()
Sea Level Pressure  
Sea Level Pressure 30.23 in    
Wind  
Wind Speed 7 mph (WNW)    
Max Wind Speed 13 mph    
Max Gust Speed 24 mph    
Visibility 10 miles    
Events      
Averages and records for this station are not official NWS values.
T = Trace of Precipitation, MM = Missing Value Source: NWS Daily Summary

Daily Weather History Graph

Daily Weather History Graph

Search for Another Location

Airport or City:

Trip Planner

Search our weather history database for the weather conditions in past years. The results will help you decide how hot, cold, wet, or windy it might be!

Date:

Astronomy

Nov. 25, 2013 Rise Set
Actual Time 6:46 AM EST 4:04 PM EST
Civil Twilight 6:14 AM EST 4:36 PM EST
Nautical Twilight 5:39 AM EST 5:12 PM EST
Astronomical Twilight 5:04 AM EST 5:46 PM EST
Moon 11:34 PM EST (11/25) 11:54 AM EST (11/25)
Length of Visible Light 10h 22m
Length of Day
9h 18m
Waning Gibbous, 51% of the Moon is Illuminated
Nov 25
Waning Gibbous
Nov 25
Last Quarter
Dec 2
New
Dec 9
First Quarter
Dec 17
Full

Hourly Weather History & Observations

Time (EST) Temp. Windchill Dew Point Humidity Pressure Visibility Wind Dir Wind Speed Gust Speed Precip Events Conditions
12:53 AM 18.0 °F 5.4 °F 1.0 °F 48% 30.04 in 10.0 mi West 11.5 mph 21.9 mph N/A   Clear
1:53 AM 18.0 °F 8.7 °F 1.0 °F 48% 30.07 in 10.0 mi Variable 6.9 mph 21.9 mph N/A   Clear
2:53 AM 18.0 °F 5.4 °F 1.0 °F 48% 30.09 in 10.0 mi WNW 11.5 mph 24.2 mph N/A   Clear
3:53 AM 17.1 °F 8.7 °F 1.0 °F 50% 30.12 in 10.0 mi WNW 5.8 mph - N/A   Clear
4:53 AM 17.1 °F 8.7 °F -0.0 °F 47% 30.13 in 10.0 mi Variable 5.8 mph - N/A   Clear
5:53 AM 17.1 °F 5.8 °F -0.0 °F 47% 30.16 in 10.0 mi WNW 9.2 mph - N/A   Clear
6:53 AM 17.1 °F 5.8 °F -0.9 °F 45% 30.21 in 10.0 mi West 9.2 mph - N/A   Clear
7:53 AM 18.0 °F 7.7 °F -2.0 °F 41% 30.22 in 10.0 mi WNW 8.1 mph 17.3 mph N/A   Clear
8:53 AM 21.0 °F 10.6 °F -2.0 °F 36% 30.24 in 10.0 mi WNW 9.2 mph 17.3 mph N/A   Clear
9:53 AM 23.0 °F 11.1 °F -2.0 °F 34% 30.25 in 10.0 mi WNW 12.7 mph 23.0 mph N/A   Clear
10:53 AM 25.0 °F 17.1 °F -2.0 °F 31% 30.27 in 10.0 mi Variable 6.9 mph 20.7 mph N/A   Clear
11:53 AM 27.0 °F 18.7 °F -0.0 °F 31% 30.27 in 10.0 mi NW 8.1 mph - N/A   Clear
12:53 PM 28.0 °F 20.8 °F -0.9 °F 29% 30.26 in 10.0 mi Variable 6.9 mph - N/A   Clear
1:53 PM 28.9 °F 20.4 °F -0.9 °F 28% 30.27 in 10.0 mi WNW 9.2 mph 17.3 mph N/A   Clear
2:53 PM 28.0 °F 24.2 °F -0.0 °F 30% 30.29 in 10.0 mi Variable 3.5 mph - N/A   Clear
3:53 PM 26.1 °F 20.5 °F -0.0 °F 32% 30.30 in 10.0 mi Variable 4.6 mph - N/A   Clear
4:53 PM 24.1 °F - 1.9 °F 38% 30.31 in 10.0 mi Calm Calm - N/A   Clear
5:53 PM 19.9 °F - 5.0 °F 52% 30.32 in 10.0 mi Calm Calm - N/A   Clear
6:53 PM 19.0 °F - 6.1 °F 57% 30.31 in 10.0 mi Calm Calm - N/A   Clear
7:53 PM 19.0 °F - 7.0 °F 59% 30.32 in 10.0 mi Calm Calm - N/A   Clear
8:53 PM 19.0 °F - 9.0 °F 65% 30.30 in 10.0 mi Calm Calm - N/A   Clear
9:53 PM 21.9 °F - 12.0 °F 66% 30.27 in 10.0 mi Calm Calm - N/A   Overcast
10:53 PM 24.1 °F - 15.1 °F 69% 30.27 in 10.0 mi Calm Calm - N/A   Overcast
11:53 PM 24.1 °F - 15.1 °F 69% 30.26 in 10.0 mi Calm Calm - N/A   Mostly Cloudy